Weather History for KCTY - February, 2014

Change the Weather History Date:

Tuesday, February 11, 2014

  Actual Average Record
Temperature  
Mean Temperature 56 °F 56 °F  
Max Temperature 74 °F 70 °F 80 °F (1999)
Min Temperature 38 °F 43 °F 30 °F (2008)
Degree Days  
Heating Degree Days 9 9  
Month to date heating degree days 72 107  
Since 1 July heating degree days 871 985  
Cooling Degree Days 0 1  
Month to date cooling degree days 19 11  
Year to date cooling degree days 25 22  
Growing Degree Days 6 (Base 50)    
Moisture  
Dew Point 47 °F    
Average Humidity 73    
Maximum Humidity 93    
Minimum Humidity 41    
Precipitation  
Precipitation 0.00 in 0.07 in 0.30 in (2006)
Month to date precipitation 0.73 0.99  
Year to date precipitation 5.68 5.03  
Sea Level Pressure  
Sea Level Pressure 30.07 in    
Wind  
Wind Speed 3 mph (WSW)    
Max Wind Speed 13 mph    
Max Gust Speed 20 mph    
T = Trace of Precipitation, MM = Missing Value Source: NWS Daily Summary

Daily Weather History Graph

Daily Weather History Graph

Search for Another Location

Airport or City:

Trip Planner

Search our weather history database for the weather conditions in past years. The results will help you decide how hot, cold, wet, or windy it might be!

Date:

Astronomy

Feb. 11, 2014 Rise Set
Actual Time 7:15 AM EST 6:18 PM EST
Civil Twilight 6:50 AM EST 6:43 PM EST
Nautical Twilight 6:22 AM EST 7:11 PM EST
Astronomical Twilight 5:54 AM EST 7:39 PM EST
Moon 3:43 PM EST (2/11) 4:45 AM EST (2/11)
Length of Visible Light 11h 52m
Length of Day
11h 03m
Waxing Gibbous, 90% of the Moon is Illuminated
Feb 11
Waxing Gibbous
Feb 14
Full
Feb 22
Last Quarter
Mar 1
New
Mar 8
First Quarter

Hourly Weather History & Observations

Time (EST) Temp. Dew Point Humidity Pressure Visibility Wind Dir Wind Speed Gust Speed Precip Events Conditions
12:53 AM 44.1 °F 42.1 °F 93% 30.07 in - Calm Calm - N/A   Unknown
1:53 AM 42.1 °F 39.0 °F 89% 30.06 in - Calm Calm - N/A   Unknown
2:53 AM 42.1 °F 39.0 °F 89% 30.05 in - Calm Calm - N/A   Unknown
3:53 AM 41.0 °F 39.0 °F 93% 30.06 in - Calm Calm - N/A   Unknown
4:53 AM 42.1 °F 39.9 °F 92% 30.07 in - Calm Calm - N/A   Unknown
5:53 AM 41.0 °F 39.0 °F 93% 30.06 in - Calm Calm - N/A   Unknown
6:53 AM 39.0 °F 37.9 °F 96% 30.09 in - Calm Calm - N/A   Unknown
7:53 AM 42.1 °F 39.9 °F 92% 30.09 in - Calm Calm - N/A   Unknown
8:53 AM 53.1 °F 50.0 °F 89% 30.10 in - Calm Calm - N/A   Unknown
9:53 AM 62.1 °F 54.0 °F 75% 30.12 in - NNE 4.6 mph - N/A   Unknown
10:53 AM 66.9 °F 53.1 °F 61% 30.12 in - NW 3.5 mph - N/A   Unknown
11:53 AM 69.1 °F 51.1 °F 53% 30.11 in - WSW 3.5 mph - N/A   Unknown
12:53 PM 73.0 °F 51.1 °F 46% 30.08 in - SSE 4.6 mph - N/A   Unknown
1:53 PM 73.9 °F 52.0 °F 46% 30.05 in - Variable 6.9 mph - N/A   Unknown
2:53 PM 73.9 °F 48.9 °F 41% 30.04 in - West 9.2 mph - N/A   Unknown
3:53 PM 73.0 °F 51.1 °F 46% 30.03 in - WSW 4.6 mph - N/A   Unknown
4:53 PM 72.0 °F 51.1 °F 48% 30.03 in - SSW 5.8 mph - N/A   Unknown
5:53 PM 69.1 °F 52.0 °F 54% 30.04 in - WSW 5.8 mph - N/A   Unknown
6:53 PM 63.0 °F 52.0 °F 67% 30.05 in - Calm Calm - N/A   Unknown
7:53 PM 59.0 °F 52.0 °F 78% 30.06 in - Calm Calm - N/A   Unknown
8:53 PM 61.0 °F 53.1 °F 75% 30.09 in - ENE 6.9 mph - N/A   Unknown
9:53 PM 57.9 °F 51.1 °F 78% 30.09 in - ENE 8.1 mph - N/A   Unknown
10:53 PM 54.0 °F 48.9 °F 83% 30.10 in - East 5.8 mph - N/A   Unknown
11:53 PM 53.1 °F 48.9 °F 86% 30.09 in - Variable 4.6 mph - N/A   Unknown